sat.trackr.live / text

‹ back to catalog

STARLINK-11223 [DTC]

NORAD 60307 · 2024-133G

PAYLOAD ACTIVE UNKNOWN

§ Identity

Operator
Country
US
Launch date
2024-07-28
Launch site
AFWTR
Launch vehicle
Mass (kg)
RCS (m²)

Purposes: comms

External: N2YO · Heavens-Above · Gunter

§ Orbital elements

Epoch: 2026-05-25T03:18:52.197696Z

Period
91.74 min
Inclination
53.1587°
Eccentricity
0.0001102
Mean motion
15.69705150 rev/d
Perigee alt
359.0 km
Apogee alt
360.5 km
Semi-major
6,737.9 km
B*
1.2481e-5
RAAN
129.1780°
Arg perigee
72.6524°
Mean anomaly
287.4615°
Rev number
10,574

§ Raw data

STARLINK-11223 [DTC]1 60307U 24133G   26145.13810414  .00000923  00000+0  12481-4 0  99922 60307  53.1587 129.1780 0001102  72.6524 287.4615 15.69705150105744

JSON: /api/v1/satellites/60307 · /tle

For live sub-satellite position, see the globe view (requires WebGL).

§ Visibility from observer

Set your observer location to see the next 7 days of passes ≥ 10°. The values pass through the URL so the page stays shareable.

No JS? Fill the form by hand. The geolocation button needs JavaScript.